Zurück zum Katalog

ICEYE-X55

AktivWissenschaftSSO
NORAD 64581·PAYLOAD·🇫🇮 Finland

Gestartet Jun 23, 2025 von Vandenberg Space Force Base

Loading…

Nächste Überflüge (nächste 24 Stunden)

TLE

AktuellSource: Space-Track

Epoche: Sep 14, 2026, 23:02 UTC

1 64581U 25135BF  26257.96032066  .00001967  00000-0  18208-3 0  9999
2 64581  97.7822  12.0639 0004255  61.8652 298.2998 14.95658890 67337

Verfolge ICEYE-X55 in Echtzeit mit AllMySat

Download on the App Store